CZ-3C DEB, 40819

Orbit data source: Space-Track

CZ-3C DEB, 40819 is space debris in HEO originally from a launch on Sun, 31 Oct 2010 UTC launched from the Xichang Space Center, China (XSC). Debris objects in space refer to the collection of defunct objects orbiting the Earth. Examples of debris include non-operational satellites, rocket bodies, and fragments generated from explosions, collisions, or faulty payload assembly.

Loading next visibility...
Identifier
40819, 2010-057AL
Orbit
HEO
Country
Flag of CNCN / PRC
Related business
Manufacturer
CALT
Mission
Spacecraft
Bus & Motor
Unknown
Mass
Unknown
Launch date (UTC)
2010-10-31 (15 years ago)
Launch vehicle
Unknown
Launch site
Xichang Space Center, China (XSC)
Object type
Payload
Rocket body
Debris
Shape & HBR
Unknown shape, 0.3 m
Radar Cross Section
Medium (>0.1 m² and <1 m²)

Expand to show TLE details & history
Last TLE update: 16 hours ago

TLE from 16 hours ago
0 CZ-3C DEB
1 40819U 10057AL  25342.15657665  .00002240  00000-0  16470-1 0  9999
2 40819  20.7293  52.9539 7139588 235.8983  35.5154  2.32285464 92256
Epoch: 2025-12-08T03:45Z
TLE epoch observation values (Epoch: 2025-12-08T03:45:28.222Z)
Latitude
0.00002°
Longitude
-80.55076°
Altitude
13,326.252 km
Speed
4.889 km/s
True Right ascension
03h 31m 54s
True Declination
0° 00' 00"
Sunlit
Object was in daylight at epoch
Visualization orbit readout
Latitude
Unknown
Longitude
Unknown
Altitude
Unknown
Speed
Unknown
Apparent Right ascension
Unknown
Apparent Declination
Unknown
Sunlit
N/A
Visualization observer readout
Local Sidereal Time
17:54:37
Azimuth
Unknown
Elevation
Unknown
Doppler factor
Unknown
Orbital elements
Apogee altitude
34,907.515 km
Perigee altitude
511.992 km
Semi-major axis
24,087.89 km
Eccentricity
0.71396
Inclination
20.7293°
RAAN
52.9539°
Arg. of periapsis
235.8983°
True anomaly
123.96867°
Mean anomaly
35.5154°
Eccentric anomaly
75.03478°
Mean motion
0.58056 °/min
Orbital period
620.09 mins
BSTAR
0.01647
Loading maneuver chart data...
Computing Atmospheric mass density...
Loading historical data...
Loading historical data...
Loading historical data...
Loading historical data...
Loading historical data...
Loading historical data...
Loading historical data...

Documentation

Showing up to 5 results
|